| time (UTC) | temp F | wind direction | speed MPH | gust MPH | rain 1hr in | rain 24hr in | rain mn in | humidity % | barometer mb |
| 20260509232546 | 69 | 4 | 1.0 | 3.0 | 0.00 | 0.00 | 0.00 | 55 | 1018.1 |
| 20260509231544 | 68 | 5 | 2.0 | 6.0 | 0.00 | 0.00 | 0.00 | 54 | 1018.3 |
| 20260509230543 | 68 | 344 | 3.0 | 6.0 | 0.00 | 0.00 | 0.00 | 54 | 1018.3 |
| 20260509225541 | 69 | 6 | 3.0 | 7.0 | 0.00 | 0.00 | 0.00 | 55 | 1018.6 |
| 20260509224539 | 68 | 355 | 2.0 | 7.0 | 0.00 | 0.00 | 0.00 | 55 | 1018.8 |
| 20260509223538 | 68 | 354 | 4.0 | 7.0 | 0.00 | 0.00 | 0.00 | 54 | 1018.8 |
| 20260509222536 | 69 | 319 | 2.0 | 6.0 | 0.00 | 0.00 | 0.00 | 55 | 1019.2 |
| 20260509221534 | 69 | 12 | 3.0 | 7.0 | 0.00 | 0.00 | 0.00 | 52 | 1019.0 |
| 20260509220532 | 68 | 336 | 1.0 | 6.0 | 0.00 | 0.00 | 0.00 | 54 | 1019.3 |
| 20260509215530 | 68 | 359 | 3.0 | 7.0 | 0.00 | 0.00 | 0.00 | 52 | 1019.2 |
| 20260509214549 | 68 | 6 | 3.0 | 8.0 | 0.00 | 0.00 | 0.00 | 51 | 1019.2 |
| 20260509213527 | 68 | 6 | 2.0 | 6.0 | 0.00 | 0.00 | 0.00 | 51 | 1019.2 |
| 20260509212546 | 68 | 354 | 1.0 | 4.0 | 0.00 | 0.00 | 0.00 | 51 | 1019.6 |
| 20260509211524 | 68 | 30 | 2.0 | 4.0 | 0.00 | 0.00 | 0.00 | 53 | 1019.4 |
| 20260509210522 | 68 | 4 | 4.0 | 8.0 | 0.00 | 0.00 | 0.00 | 53 | 1019.5 |
| 20260509205521 | 68 | 341 | 2.0 | 7.0 | 0.00 | 0.00 | 0.00 | 55 | 1019.5 |
| 20260509204519 | 68 | 357 | 2.0 | 6.0 | 0.00 | 0.00 | 0.00 | 54 | 1019.7 |
| 20260509203537 | 67 | 315 | 1.0 | 2.0 | 0.00 | 0.00 | 0.00 | 56 | 1019.7 |
| 20260509202615 | 66 | 324 | 2.0 | 4.0 | 0.00 | 0.00 | 0.00 | 56 | 1019.8 |
| 20260509201614 | 66 | 354 | 2.0 | 6.0 | 0.00 | 0.00 | 0.00 | 57 | 1019.9 |
| 20260509200612 | 66 | 337 | 2.0 | 6.0 | 0.00 | 0.00 | 0.00 | 57 | 1020.0 |
| 20260509195610 | 66 | 3 | 2.0 | 8.0 | 0.00 | 0.00 | 0.00 | 60 | 1020.2 |
| 20260509194629 | 65 | 356 | 3.0 | 8.0 | 0.00 | 0.00 | 0.00 | 59 | 1020.4 |
| 20260509193607 | 65 | 345 | 2.0 | 4.0 | 0.00 | 0.00 | 0.00 | 60 | 1020.5 |
| 20260509192625 | 64 | 357 | 3.0 | 7.0 | 0.00 | 0.00 | 0.00 | 60 | 1020.6 |
| 20260509191603 | 64 | 20 | 3.0 | 9.0 | 0.00 | 0.00 | 0.00 | 61 | 1020.7 |
| 20260509190601 | 63 | 346 | 3.0 | 6.0 | 0.00 | 0.00 | 0.00 | 61 | 1020.8 |
| 20260509185619 | 63 | 2 | 4.0 | 6.0 | 0.00 | 0.00 | 0.00 | 61 | 1020.9 |
| 20260509184618 | 63 | 351 | 4.0 | 8.0 | 0.00 | 0.00 | 0.00 | 62 | 1020.9 |
| 20260509183556 | 62 | 359 | 4.0 | 7.0 | 0.00 | 0.00 | 0.00 | 66 | 1020.9 |
| 20260509182554 | 62 | 8 | 4.0 | 9.0 | 0.00 | 0.00 | 0.00 | 66 | 1020.9 |
| 20260509181612 | 62 | 1 | 5.0 | 8.0 | 0.00 | 0.00 | 0.00 | 66 | 1020.9 |
| 20260509180611 | 62 | 2 | 4.0 | 8.0 | 0.00 | 0.00 | 0.00 | 68 | 1021.0 |
| 20260509175608 | 62 | 340 | 1.0 | 4.0 | 0.00 | 0.00 | 0.00 | 69 | 1021.1 |
| 20260509174547 | 61 | 10 | 4.0 | 7.0 | 0.00 | 0.00 | 0.00 | 70 | 1021.2 |
| 20260509173545 | 61 | 1 | 3.0 | 6.0 | 0.00 | 0.00 | 0.00 | 69 | 1021.2 |
| 20260509172604 | 61 | 10 | 3.0 | 6.0 | 0.00 | 0.00 | 0.00 | 70 | 1021.3 |
| 20260509171622 | 60 | 345 | 2.0 | 3.0 | 0.00 | 0.00 | 0.00 | 70 | 1021.3 |
| 20260509170540 | 60 | 15 | 1.0 | 3.0 | 0.00 | 0.00 | 0.00 | 72 | 1021.3 |
| 20260509165538 | 60 | 5 | 3.0 | 6.0 | 0.00 | 0.00 | 0.00 | 74 | 1021.3 |
| 20260509164537 | 59 | 355 | 3.0 | 7.0 | 0.00 | 0.00 | 0.00 | 72 | 1021.5 |
| 20260509163535 | 60 | 4 | 3.0 | 6.0 | 0.00 | 0.00 | 0.00 | 72 | 1021.7 |
| 20260509162533 | 60 | 11 | 2.0 | 8.0 | 0.00 | 0.00 | 0.00 | 71 | 1021.6 |
| 20260509161551 | 61 | 21 | 1.0 | 3.0 | 0.00 | 0.00 | 0.00 | 70 | 1021.7 |
| 20260509160550 | 60 | 35 | 1.0 | 2.0 | 0.00 | 0.00 | 0.00 | 70 | 1021.7 |
| 20260509155528 | 61 | 72 | 1.0 | 1.0 | 0.00 | 0.00 | 0.00 | 69 | 1021.9 |
| 20260509154546 | 63 | 57 | 1.0 | 3.0 | 0.00 | 0.00 | 0.00 | 65 | 1022.1 |
| 20260509153524 | 65 | 96 | 1.0 | 3.0 | 0.00 | 0.00 | 0.00 | 63 | 1022.2 |
| 20260509152523 | 67 | 121 | 0.0 | 1.0 | 0.00 | 0.00 | 0.00 | 61 | 1022.1 |
| 20260509151521 | 71 | 99 | 1.0 | 3.0 | 0.00 | 0.00 | 0.00 | 58 | 1022.1 |
| 20260509150519 | 72 | 156 | 1.0 | 2.0 | 0.00 | 0.00 | 0.00 | 63 | 1022.2 |
| 20260509145518 | 69 | 168 | 1.0 | 2.0 | 0.00 | 0.00 | 0.00 | 69 | 1022.4 |
| 20260509144516 | 64 | 192 | 1.0 | 2.0 | 0.00 | 0.00 | 0.00 | 76 | 1022.4 |
| 20260509143614 | 59 | 194 | 0.0 | 1.0 | 0.00 | 0.00 | 0.00 | 89 | 1022.4 |
| 20260509142613 | 52 | 193 | 0.0 | 1.0 | 0.00 | 0.00 | 0.00 | 91 | 1022.4 |
| 20260509141611 | 51 | 195 | 1.0 | 2.0 | 0.00 | 0.00 | 0.00 | 91 | 1022.4 |
| 20260509140609 | 49 | 250 | 1.0 | 2.0 | 0.00 | 0.00 | 0.00 | 91 | 1022.5 |
| 20260509135608 | 48 | 251 | 1.0 | 2.0 | 0.00 | 0.00 | 0.00 | 91 | 1022.5 |
| 20260509134606 | 48 | 251 | 0.0 | 1.0 | 0.00 | 0.00 | 0.00 | 91 | 1022.6 |
| 20260509133704 | 47 | 0.0 | 0.0 | 0.00 | 0.00 | 0.00 | 90 | 1022.6 | |
| 20260509132623 | 47 | 0.0 | 0.0 | 0.00 | 0.00 | 0.00 | 90 | 1022.7 | |
| 20260509131601 | 47 | 0.0 | 0.0 | 0.00 | 0.00 | 0.00 | 90 | 1022.7 | |
| 20260509130619 | 47 | 0.0 | 0.0 | 0.00 | 0.00 | 0.00 | 90 | 1022.7 | |
| 20260509125557 | 46 | 0.0 | 0.0 | 0.00 | 0.00 | 0.00 | 90 | 1022.6 | |
| 20260509124615 | 46 | 0.0 | 0.0 | 0.00 | 0.00 | 0.00 | 89 | 1022.6 | |
| 20260509123554 | 46 | 0.0 | 0.0 | 0.00 | 0.00 | 0.00 | 89 | 1022.6 | |
| 20260509122552 | 46 | 0.0 | 0.0 | 0.00 | 0.00 | 0.00 | 88 | 1022.5 | |
| 20260509121550 | 47 | 0.0 | 0.0 | 0.00 | 0.00 | 0.00 | 88 | 1022.5 | |
| 20260509120549 | 47 | 0.0 | 0.0 | 0.00 | 0.00 | 0.00 | 88 | 1022.7 | |
| 20260509115547 | 48 | 0.0 | 0.0 | 0.00 | 0.00 | 0.00 | 88 | 1022.9 | |
| 20260509114546 | 48 | 0.0 | 0.0 | 0.00 | 0.00 | 0.00 | 88 | 1022.7 | |
| 20260509113544 | 47 | 0.0 | 0.0 | 0.00 | 0.00 | 0.00 | 87 | 1022.7 | |
| 20260509112542 | 48 | 0.0 | 0.0 | 0.00 | 0.00 | 0.00 | 87 | 1022.7 | |
| 20260509111540 | 48 | 0.0 | 0.0 | 0.00 | 0.00 | 0.00 | 87 | 1022.7 | |
| 20260509110558 | 48 | 0.0 | 0.0 | 0.00 | 0.00 | 0.00 | 87 | 1022.8 | |
| 20260509105537 | 48 | 0.0 | 0.0 | 0.00 | 0.00 | 0.00 | 86 | 1022.9 | |
| 20260509104555 | 48 | 0.0 | 0.0 | 0.00 | 0.00 | 0.00 | 85 | 1022.9 | |
| 20260509103533 | 49 | 0.0 | 0.0 | 0.00 | 0.00 | 0.00 | 84 | 1022.9 | |
| 20260509102531 | 49 | 0.0 | 0.0 | 0.00 | 0.00 | 0.00 | 84 | 1022.8 | |
| 20260509101530 | 50 | 0.0 | 0.0 | 0.00 | 0.00 | 0.00 | 83 | 1023.1 | |
| 20260509100528 | 51 | 0.0 | 0.0 | 0.00 | 0.00 | 0.00 | 83 | 1023.0 | |
| 20260509095526 | 51 | 0.0 | 0.0 | 0.00 | 0.00 | 0.00 | 83 | 1023.1 | |
| 20260509094525 | 51 | 0.0 | 0.0 | 0.00 | 0.00 | 0.00 | 83 | 1023.2 | |
| 20260509093543 | 51 | 0.0 | 0.0 | 0.00 | 0.00 | 0.00 | 81 | 1023.2 | |
| 20260509092521 | 52 | 251 | 0.0 | 1.0 | 0.00 | 0.00 | 0.00 | 81 | 1023.3 |
| 20260509091540 | 52 | 251 | 0.0 | 1.0 | 0.00 | 0.00 | 0.00 | 81 | 1023.3 |
| 20260509090518 | 53 | 251 | 0.0 | 1.0 | 0.00 | 0.00 | 0.00 | 81 | 1023.4 |
| 20260509085516 | 53 | 244 | 1.0 | 1.0 | 0.00 | 0.00 | 0.00 | 82 | 1023.3 |
| 20260509084614 | 53 | 239 | 2.0 | 4.0 | 0.00 | 0.00 | 0.00 | 82 | 1023.4 |
| 20260509083617 | 53 | 229 | 1.0 | 3.0 | 0.00 | 0.00 | 0.00 | 82 | 1023.5 |
| 20260509082611 | 53 | 237 | 1.0 | 2.0 | 0.00 | 0.00 | 0.00 | 82 | 1023.4 |
| 20260509081609 | 53 | 237 | 1.0 | 2.0 | 0.00 | 0.00 | 0.00 | 82 | 1023.5 |
| 20260509080608 | 53 | 236 | 1.0 | 2.0 | 0.00 | 0.00 | 0.00 | 82 | 1023.4 |
| 20260509075606 | 52 | 225 | 1.0 | 3.0 | 0.00 | 0.00 | 0.00 | 82 | 1023.3 |
| 20260509074604 | 52 | 223 | 1.0 | 1.0 | 0.00 | 0.00 | 0.00 | 82 | 1023.2 |
| 20260509073622 | 52 | 231 | 1.0 | 2.0 | 0.00 | 0.00 | 0.00 | 82 | 1023.3 |
| 20260509072601 | 52 | 216 | 1.0 | 1.0 | 0.00 | 0.00 | 0.00 | 82 | 1023.3 |
| 20260509071559 | 52 | 229 | 1.0 | 2.0 | 0.00 | 0.00 | 0.00 | 82 | 1023.2 |
| 20260509070557 | 52 | 232 | 1.0 | 2.0 | 0.00 | 0.00 | 0.00 | 82 | 1023.2 |
| 20260509065555 | 51 | 235 | 0.0 | 1.0 | 0.00 | 0.00 | 0.00 | 81 | 1023.3 |
| 20260509064634 | 52 | 0.0 | 0.0 | 0.00 | 0.00 | 0.00 | 81 | 1023.2 | |
| 20260509063551 | 52 | 209 | 0.0 | 1.0 | 0.00 | 0.00 | 0.00 | 81 | 1023.2 |
| 20260509062550 | 52 | 216 | 0.0 | 1.0 | 0.00 | 0.00 | 0.00 | 81 | 1023.2 |
| 20260509061548 | 52 | 0.0 | 0.0 | 0.00 | 0.00 | 0.00 | 80 | 1023.1 | |
| 20260509060546 | 52 | 213 | 1.0 | 2.0 | 0.00 | 0.00 | 0.00 | 80 | 1023.0 |
| 20260509055545 | 52 | 237 | 1.0 | 2.0 | 0.00 | 0.00 | 0.00 | 79 | 1023.0 |
| 20260509054543 | 52 | 224 | 1.0 | 2.0 | 0.00 | 0.00 | 0.00 | 79 | 1022.9 |
| 20260509053542 | 52 | 228 | 2.0 | 3.0 | 0.00 | 0.00 | 0.00 | 78 | 1022.8 |
| 20260509052539 | 52 | 218 | 2.0 | 3.0 | 0.00 | 0.00 | 0.00 | 77 | 1022.9 |
| 20260509051538 | 52 | 232 | 2.0 | 4.0 | 0.00 | 0.00 | 0.00 | 76 | 1022.8 |
| 20260509050536 | 53 | 238 | 2.0 | 4.0 | 0.00 | 0.00 | 0.00 | 75 | 1022.8 |
| 20260509045534 | 53 | 244 | 2.0 | 3.0 | 0.00 | 0.00 | 0.00 | 75 | 1022.8 |
| 20260509044533 | 54 | 242 | 2.0 | 3.0 | 0.00 | 0.00 | 0.00 | 75 | 1022.8 |
| 20260509043531 | 54 | 236 | 3.0 | 6.0 | 0.00 | 0.00 | 0.00 | 74 | 1022.8 |
| 20260509042529 | 54 | 240 | 3.0 | 6.0 | 0.00 | 0.00 | 0.00 | 73 | 1022.8 |
| 20260509041547 | 55 | 251 | 2.0 | 6.0 | 0.00 | 0.00 | 0.00 | 72 | 1022.6 |
| 20260509040526 | 55 | 238 | 2.0 | 6.0 | 0.00 | 0.00 | 0.00 | 72 | 1022.5 |
| 20260509035524 | 55 | 262 | 2.0 | 7.0 | 0.00 | 0.00 | 0.00 | 71 | 1022.4 |
| 20260509034523 | 56 | 259 | 3.0 | 7.0 | 0.00 | 0.00 | 0.00 | 70 | 1022.3 |
| 20260509033521 | 56 | 257 | 2.0 | 6.0 | 0.00 | 0.00 | 0.00 | 69 | 1022.2 |
| 20260509032519 | 57 | 246 | 1.0 | 3.0 | 0.00 | 0.00 | 0.00 | 67 | 1022.2 |
| 20260509031517 | 58 | 244 | 1.0 | 3.0 | 0.00 | 0.00 | 0.00 | 66 | 1022.1 |
| 20260509030515 | 58 | 252 | 3.0 | 7.0 | 0.00 | 0.00 | 0.00 | 64 | 1022.2 |
| 20260509025614 | 59 | 249 | 2.0 | 4.0 | 0.00 | 0.00 | 0.00 | 63 | 1022.0 |
| 20260509024653 | 60 | 265 | 2.0 | 7.0 | 0.00 | 0.00 | 0.00 | 63 | 1021.8 |
| 20260509023613 | 60 | 260 | 3.0 | 7.0 | 0.00 | 0.00 | 0.00 | 62 | 1021.7 |
| 20260509022709 | 61 | 270 | 2.0 | 4.0 | 0.00 | 0.00 | 0.00 | 61 | 1021.8 |
| 20260509021607 | 61 | 284 | 4.0 | 10.0 | 0.00 | 0.00 | 0.00 | 60 | 1021.6 |
| 20260509020605 | 61 | 264 | 1.0 | 6.0 | 0.00 | 0.00 | 0.00 | 60 | 1021.6 |
| 20260509015606 | 62 | 268 | 3.0 | 4.0 | 0.00 | 0.00 | 0.00 | 59 | 1021.7 |
| 20260509014622 | 62 | 279 | 3.0 | 8.0 | 0.00 | 0.00 | 0.00 | 58 | 1021.7 |
| 20260509013600 | 63 | 260 | 3.0 | 8.0 | 0.00 | 0.00 | 0.00 | 56 | 1021.7 |
| 20260509012559 | 63 | 261 | 2.0 | 6.0 | 0.00 | 0.00 | 0.00 | 55 | 1021.6 |
| 20260509011557 | 64 | 225 | 2.0 | 4.0 | 0.00 | 0.00 | 0.00 | 55 | 1021.6 |
| 20260509010555 | 64 | 249 | 3.0 | 6.0 | 0.00 | 0.00 | 0.00 | 55 | 1021.7 |
| 20260509005553 | 64 | 262 | 3.0 | 8.0 | 0.00 | 0.00 | 0.00 | 54 | 1021.9 |
| 20260509004552 | 64 | 243 | 4.0 | 10.0 | 0.00 | 0.00 | 0.00 | 54 | 1021.7 |
| 20260509003550 | 64 | 247 | 3.0 | 8.0 | 0.00 | 0.00 | 0.00 | 54 | 1021.8 |
| 20260509002548 | 64 | 240 | 7.0 | 11.0 | 0.00 | 0.00 | 0.00 | 54 | 1021.7 |
| 20260509001547 | 64 | 260 | 4.0 | 8.0 | 0.00 | 0.00 | 0.00 | 53 | 1021.7 |
| 20260509000545 | 65 | 288 | 4.0 | 11.0 | 0.00 | 0.00 | 0.00 | 52 | 1021.6 |
| 20260508235543 | 65 | 254 | 4.0 | 7.0 | 0.00 | 0.00 | 0.00 | 53 | 1021.6 |
| 20260508234542 | 64 | 274 | 2.0 | 6.0 | 0.00 | 0.00 | 0.00 | 52 | 1021.6 |
| 20260508233620 | 64 | 260 | 4.0 | 8.0 | 0.00 | 0.00 | 0.00 | 52 | 1021.6 |